#timestamp,LO_Frequency,Hit,StdDev 
1457334015.3,286046999.2,N
1457334035.1,286046996.1,N
1457334055.9,286046997.2,N
1457334075.7,286046997.2,N
1457334095.5,286046997.3,N
1457334115.3,286046997.7,N
1457334135.2,286046995.1,N
1457334155.0,286046997.6,N
1457334155.9,286046997.6,N
1457334175.7,286046997.1,N
1457334195.6,286046995.3,N
1457334215.4,286046998.1,N
1457334235.2,286046995.0,N
1457334255.1,286046993.8,N
1457334256.0,286046993.8,N
1457334275.8,286046994.4,N
1457334295.6,286046992.9,N
1457334315.5,286046989.1,Y
1457334335.3,286046987.1,P
1457334355.1,286046984.6,N
1457334375.9,286046982.7,N
1457334395.7,286046982.8,N
1457334415.5,286046979.9,Y
1457334435.4,286046990.9,P
1457334455.2,286046993.3,P
1457334475.0,286046993.3,N
1457334475.9,286046993.3,N
1457334495.8,286046992.0,Y
1457334515.6,286047003.8,P
1457334535.4,286047005.6,N
1457334555.3,286047001.5,N
1457334575.1,286046999.1,N
1457334595.8,286046999.0,N
1457334615.7,286046996.7,N
1457334635.5,286046994.6,N
1457334655.3,286046994.9,N
1457334675.2,286046993.7,N
1457334695.9,286046995.8,N
1457334715.7,286046991.7,N
1457334735.6,286046992.0,N
1457334755.4,286046994.2,N
1457334775.2,286046996.3,N
1457334795.0,286046996.0,N
1457334795.9,286046996.0,N
1457334815.8,286046995.4,N
1457334835.6,286046997.5,N
1457334855.4,286047001.1,N
1457334875.3,286047000.1,N
1457334895.1,286047005.0,N
1457334915.8,286047008.9,N
1457334935.7,286047012.3,N
1457334955.5,286047017.2,Y
1457334975.3,286047018.2,P
1457334995.2,286047017.9,N
1457335015.9,286047023.2,N
1457335035.7,286047022.3,N
1457335055.6,286047027.9,Y
1457335075.4,286047013.8,P
1457335095.2,286047016.8,P
1457335115.1,286047021.9,P
1457335116.0,286047021.9,Y
1457335135.8,286047007.6,P
1457335155.6,286047004.5,N
1457335175.5,286047009.0,N
1457335195.3,286047008.9,N
1457335215.1,286047009.4,N
1457335235.9,286047012.1,Y
1457335255.7,286047002.1,P
1457335275.5,286047006.0,N
1457335295.4,286047006.8,N
1457335315.2,286047006.4,N
1457335335.0,286047007.1,Y
1457335335.9,286047007.1,P
1457335355.8,286046999.9,N
1457335375.6,286046999.6,N
1457335395.4,286046996.8,N
1457335415.3,286046994.9,N
1457335435.1,286046996.0,N
1457335455.8,286046992.6,N
1457335475.7,286046992.0,N
1457335495.5,286046991.7,N
1457335515.3,286046990.2,N
1457335535.2,286046988.6,N
1457335555.9,286046991.4,N
1457335575.7,286046992.2,N
1457335595.5,286046992.3,N
1457335615.4,286046992.9,N
1457335635.2,286046988.8,N
1457335655.0,286046987.7,N
1457335655.9,286046987.7,N
1457335675.8,286046986.8,N
1457335695.6,286046984.9,N
1457335715.4,286046983.2,N
1457335735.3,286046980.5,Y
1457335755.1,286046989.1,P
1457335775.8,286046987.6,P
1457335795.7,286046986.6,P
1457335815.5,286046984.2,Y
1457335835.3,286046993.2,P
1457335855.2,286046988.8,P
1457335875.9,286046991.2,P
1457335895.7,286046986.0,Y
1457335915.6,286046992.3,P
1457335935.4,286046988.6,P
1457335955.2,286046983.7,P
1457335975.1,286046981.8,Y
1457335976.0,286046981.8,P
1457335995.8,286046988.5,P
1457336015.6,286046990.2,P
1457336035.5,286046989.7,Y
1457336055.3,286047003.6,P
1457336075.1,286047004.9,N
1457336095.9,286047004.7,N
1457336115.7,286047004.3,N
1457336135.5,286047000.3,N
1457336155.4,286047003.2,N
1457336175.2,286047007.1,N
1457336195.0,286047004.7,N
1457336195.9,286047004.7,N
1457336215.8,286047008.9,N
1457336235.6,286047012.2,N
1457336255.4,286047013.7,N
1457336275.2,286047016.7,N
1457336295.1,286047017.5,N
1457336296.0,286047017.5,N
1457336315.8,286047023.5,Y
1457336335.7,286047019.2,P
1457336355.5,286047019.5,P
1457336375.3,286047023.0,P
1457336395.1,286047017.4,N
1457336415.9,286047021.6,Y
1457336435.7,286047004.7,P
1457336455.5,286047007.0,N
1457336475.4,286047011.5,N
1457336495.2,286047013.6,N
1457336515.0,286047015.6,Y
1457336516.0,286047015.6,P
1457336535.8,286047000.3,N
1457336555.6,286047002.0,N
1457336575.4,286046999.9,N
1457336595.3,286047004.0,N
1457336615.1,286047004.0,N
1457336635.8,286047005.4,N
1457336655.7,286047007.3,N
1457336675.5,286047005.2,N
1457336695.3,286047001.6,N
1457336715.2,286047004.2,N
1457336735.9,286047000.6,N
1457336755.7,286047000.3,N
1457336775.6,286047002.0,N
1457336795.4,286047002.9,N
1457336815.2,286047007.4,N
1457336835.0,286047003.3,N
1457336835.9,286047003.3,N
1457336855.8,286047003.2,N
1457336875.6,286046999.7,N
1457336895.4,286047002.2,N
1457336915.3,286047004.3,N
1457336935.1,286047003.9,N
1457336936.0,286047003.9,N
1457336955.8,286047000.8,N
1457336975.7,286046999.3,N
1457336995.5,286046998.7,N
1457337015.3,286047000.7,N
1457337035.2,286047001.1,N
1457337055.9,286047000.6,N
1457337075.7,286047001.0,N
1457337095.6,286046998.6,N
1457337115.4,286047000.4,N
1457337135.2,286047004.3,N
1457337155.0,286047003.5,N
1457337156.0,286047003.5,N
1457337175.8,286047002.6,N
1457337195.6,286047003.3,N
1457337215.4,286047001.6,N
1457337235.3,286047001.6,N
1457337255.1,286047004.4,N
1457337275.8,286047004.3,N
1457337295.7,286047003.3,N
1457337315.5,286047001.9,N
1457337335.3,286047000.6,N
1457337355.2,286046999.8,N
1457337375.9,286046999.9,N
1457337395.7,286047002.8,N
1457337415.6,286047001.9,N
1457337435.4,286047001.4,N
1457337455.2,286047004.1,N
1457337475.0,286047003.4,N
1457337476.0,286047003.4,N
1457337495.8,286047004.2,N
1457337515.6,286046998.2,N
1457337535.4,286046999.4,N
1457337555.3,286047000.3,N
1457337575.1,286047000.7,N
1457337595.8,286047001.2,N
